When you browse on this site, cookies collect data to enhance your experience and personalize the content and advertising you see.
Visit our Privacy Policy to learn more. By continuing to use the site, you agree to this use of cookies and data.
  • In Sweden
  • List of Countries
  • For 7 days
  • Water Temperature
  • Satellite Maps
  • Weather Map
  • Weather Widgets
  • user-avatar
    Login

    Hourly Weather Winduga

    Today, 20 July, Saturday

    Time Temperature Precipitation Wind Pressure Humidity
    00:00 +17°C° 0.1 mm 2 mps 745 mmHg 94%
    01:00 +16°C° 0.1 mm 2 mps 745 mmHg 94%
    02:00 +16°C° 0 mm 2 mps 745 mmHg 94%
    03:00 +16°C° 0 mm 2 mps 745 mmHg 94%
    04:00 +16°C° 0 mm 2 mps 745 mmHg 94%
    05:00 +17°C° 0 mm 2 mps 746 mmHg 89%
    06:00 +19°C° 0 mm 2 mps 746 mmHg 84%
    07:00 +20°C° 0 mm 2 mps 746 mmHg 79%
    08:00 +23°C° 0 mm 2 mps 746 mmHg 71%
    09:00 +24°C° 0 mm 2 mps 746 mmHg 64%
    10:00 +26°C° 0 mm 2 mps 746 mmHg 56%
    11:00 +26°C° 0 mm 2 mps 746 mmHg 53%
    12:00 +27°C° 0 mm 2 mps 746 mmHg 51%
    13:00 +28°C° 0 mm 2 mps 746 mmHg 48%
    14:00 +28°C° 0 mm 2 mps 746 mmHg 49%
    15:00 +28°C° 0 mm 2 mps 746 mmHg 50%
    16:00 +28°C° 0 mm 2 mps 746 mmHg 51%
    17:00 +27°C° 0 mm 1 mps 746 mmHg 54%
    18:00 +26°C° 0 mm 1 mps 746 mmHg 58%
    19:00 +23°C° 0 mm 0 mps 746 mmHg 61%
    20:00 +24°C° 0 mm 1 mps 746 mmHg 63%
    21:00 +23°C° 0 mm 1 mps 746 mmHg 65%
    22:00 +23°C° 0 mm 2 mps 746 mmHg 66%
    23:00 +21°C° 0 mm 2 mps 746 mmHg 68%

    Tomorrow, 21 July, Sunday

    Time Temperature Precipitation Wind Pressure Humidity
    00:00 +21°C° 0 mm 2 mps 746 mmHg 70%
    01:00 +21°C° 0 mm 2 mps 746 mmHg 72%
    02:00 +20°C° 0 mm 2 mps 746 mmHg 77%
    03:00 +19°C° 0 mm 2 mps 746 mmHg 81%
    04:00 +19°C° 0 mm 2 mps 746 mmHg 85%
    05:00 +20°C° 0.1 mm 3 mps 746 mmHg 82%
    06:00 +21°C° 0.1 mm 3 mps 746 mmHg 79%
    07:00 +24°C° 0.1 mm 3 mps 745 mmHg 76%
    08:00 +25°C° 0 mm 4 mps 746 mmHg 70%
    09:00 +27°C° 0 mm 4 mps 746 mmHg 64%
    10:00 +29°C° 0 mm 4 mps 746 mmHg 59%
    11:00 +29°C° 1.4 mm 4 mps 746 mmHg 60%
    12:00 +29°C° 1.4 mm 5 mps 746 mmHg 61%
    13:00 +28°C° 1.4 mm 5 mps 746 mmHg 63%
    14:00 +28°C° 1 mm 5 mps 746 mmHg 64%
    15:00 +27°C° 1 mm 5 mps 746 mmHg 65%
    16:00 +27°C° 1 mm 5 mps 746 mmHg 66%
    17:00 +26°C° 0.6 mm 4 mps 746 mmHg 71%
    18:00 +23°C° 0.6 mm 4 mps 746 mmHg 75%
    19:00 +22°C° 0.6 mm 3 mps 747 mmHg 80%
    20:00 +21°C° 0.3 mm 3 mps 747 mmHg 83%
    21:00 +20°C° 0.3 mm 3 mps 748 mmHg 85%
    22:00 +19°C° 0.3 mm 3 mps 748 mmHg 88%
    23:00 +19°C° 0 mm 3 mps 748 mmHg 89%

    Day after tomorrow, 22 July, Monday

    Time Temperature Precipitation Wind Pressure Humidity
    00:00 +18°C° 0 mm 3 mps 748 mmHg 90%
    01:00 +17°C° 0 mm 3 mps 749 mmHg 92%
    02:00 +17°C° 0 mm 3 mps 749 mmHg 93%
    03:00 +17°C° 0 mm 3 mps 749 mmHg 94%
    04:00 +16°C° 0 mm 3 mps 749 mmHg 95%
    05:00 +17°C° 0 mm 3 mps 750 mmHg 90%
    06:00 +18°C° 0 mm 4 mps 750 mmHg 86%
    07:00 +19°C° 0 mm 5 mps 750 mmHg 81%
    08:00 +20°C° 0 mm 5 mps 750 mmHg 74%
    09:00 +21°C° 0 mm 5 mps 750 mmHg 67%
    10:00 +22°C° 0 mm 6 mps 750 mmHg 61%
    11:00 +23°C° 0 mm 6 mps 750 mmHg 57%
    12:00 +24°C° 0 mm 6 mps 750 mmHg 54%
    13:00 +24°C° 0 mm 6 mps 750 mmHg 51%
    14:00 +24°C° 0 mm 6 mps 750 mmHg 52%
    15:00 +24°C° 0 mm 6 mps 750 mmHg 52%
    16:00 +23°C° 0 mm 6 mps 750 mmHg 52%
    17:00 +22°C° 0 mm 5 mps 750 mmHg 57%
    18:00 +21°C° 0 mm 4 mps 750 mmHg 61%
    19:00 +20°C° 0 mm 3 mps 750 mmHg 66%
    20:00 +19°C° 0 mm 3 mps 750 mmHg 68%
    21:00 +18°C° 0 mm 3 mps 750 mmHg 70%
    22:00 +17°C° 0 mm 2 mps 750 mmHg 72%
    23:00 +17°C° 0 mm 3 mps 750 mmHg 74%

    23 July, Tuesday

    Time Temperature Precipitation Wind Pressure Humidity
    00:00 +16°C° 0 mm 3 mps 750 mmHg 76%
    01:00 +16°C° 0 mm 3 mps 750 mmHg 78%
    02:00 +14°C° 0 mm 3 mps 750 mmHg 80%
    03:00 +15°C° 0 mm 2 mps 750 mmHg 82%
    04:00 +14°C° 0 mm 2 mps 750 mmHg 84%
    05:00 +16°C° 0 mm 3 mps 750 mmHg 79%
    06:00 +17°C° 0 mm 4 mps 750 mmHg 75%
    07:00 +19°C° 0 mm 4 mps 750 mmHg 70%
    08:00 +20°C° 0 mm 4 mps 750 mmHg 65%
    09:00 +21°C° 0 mm 5 mps 750 mmHg 60%
    10:00 +23°C° 0 mm 5 mps 750 mmHg 56%
    11:00 +23°C° 0 mm 5 mps 749 mmHg 55%
    12:00 +23°C° 0 mm 5 mps 749 mmHg 55%
    13:00 +25°C° 0 mm 5 mps 749 mmHg 54%
    14:00 +25°C° 0 mm 5 mps 749 mmHg 57%
    15:00 +23°C° 0 mm 5 mps 748 mmHg 59%
    16:00 +23°C° 0 mm 4 mps 748 mmHg 62%
    17:00 +22°C° 0 mm 3 mps 748 mmHg 65%
    18:00 +22°C° 0 mm 3 mps 748 mmHg 68%
    19:00 +21°C° 0 mm 2 mps 748 mmHg 71%
    20:00 +21°C° 0 mm 2 mps 748 mmHg 71%
    21:00 +22°C° 0 mm 1 mps 748 mmHg 72%
    22:00 +21°C° 0 mm 1 mps 748 mmHg 73%
    23:00 +21°C° 0 mm 1 mps 748 mmHg 75%

    24 July, Wednesday

    Time Temperature Precipitation Wind Pressure Humidity
    00:00 +20°C° 0 mm 1 mps 748 mmHg 77%
    01:00 +19°C° 0 mm 2 mps 748 mmHg 79%
    02:00 +18°C° 0 mm 2 mps 748 mmHg 83%
    03:00 +18°C° 0 mm 2 mps 748 mmHg 86%
    04:00 +18°C° 0 mm 2 mps 748 mmHg 90%
    05:00 +19°C° 0 mm 3 mps 748 mmHg 85%
    06:00 +21°C° 0 mm 3 mps 748 mmHg 81%
    07:00 +22°C° 0 mm 4 mps 748 mmHg 76%
    08:00 +23°C° 0 mm 4 mps 748 mmHg 70%
    09:00 +26°C° 0 mm 4 mps 748 mmHg 64%
    10:00 +27°C° 0 mm 4 mps 748 mmHg 58%
    11:00 +28°C° 0 mm 4 mps 748 mmHg 54%
    12:00 +29°C° 0 mm 4 mps 748 mmHg 51%
    13:00 +30°C° 0 mm 5 mps 747 mmHg 48%
    14:00 +30°C° 0 mm 4 mps 747 mmHg 49%
    15:00 +30°C° 0 mm 4 mps 747 mmHg 50%
    16:00 +29°C° 0 mm 4 mps 747 mmHg 51%
    17:00 +28°C° 0 mm 3 mps 747 mmHg 57%
    18:00 +27°C° 0 mm 3 mps 747 mmHg 64%
    19:00 +26°C° 0 mm 2 mps 747 mmHg 70%
    20:00 +24°C° 0 mm 1 mps 748 mmHg 74%
    21:00 +23°C° 0 mm 1 mps 748 mmHg 77%
    22:00 +20°C° 0 mm 0 mps 748 mmHg 81%
    23:00 +20°C° 0 mm 0 mps 748 mmHg 82%

    25 July, Thursday

    Time Temperature Precipitation Wind Pressure Humidity
    00:00 +19°C° 0 mm 0 mps 748 mmHg 84%
    01:00 +19°C° 0 mm 0 mps 749 mmHg 85%
    02:00 +21°C° 0 mm 1 mps 749 mmHg 86%
    03:00 +20°C° 0 mm 1 mps 749 mmHg 88%
    04:00 +20°C° 0 mm 1 mps 749 mmHg 89%
    05:00 +22°C° 0 mm 1 mps 749 mmHg 82%
    06:00 +24°C° 0 mm 1 mps 749 mmHg 75%
    07:00 +25°C° 0 mm 1 mps 749 mmHg 68%
    08:00 +27°C° 0 mm 2 mps 749 mmHg 62%
    09:00 +28°C° 0 mm 2 mps 749 mmHg 55%
    10:00 +30°C° 0 mm 2 mps 749 mmHg 48%
    11:00 +31°C° 0 mm 2 mps 749 mmHg 43%
    12:00 +31°C° 0 mm 3 mps 749 mmHg 39%
    13:00 +33°C° 0 mm 3 mps 749 mmHg 34%
    14:00 +33°C° 0 mm 3 mps 749 mmHg 34%
    15:00 +33°C° 0 mm 3 mps 748 mmHg 34%
    16:00 +33°C° 0 mm 3 mps 748 mmHg 34%
    17:00 +30°C° 0 mm 3 mps 748 mmHg 41%
    18:00 +28°C° 0 mm 3 mps 748 mmHg 48%
    19:00 +26°C° 0 mm 2 mps 748 mmHg 56%
    20:00 +25°C° 0 mm 2 mps 748 mmHg 60%
    21:00 +24°C° 0 mm 2 mps 749 mmHg 65%
    22:00 +21°C° 0 mm 2 mps 749 mmHg 70%
    23:00 +21°C° 0 mm 2 mps 749 mmHg 75%
    Show more